This is the latest recevied weather packets stored in our database for station/object K4DNM. If no packets are shown the sender has not sent any weather packets the latest 10 day(s).
| Time | Temp. | Humidity | Pressure | Rain* | Wind** | Luminosity | Snow |
|---|---|---|---|---|---|---|---|
| 1777528436 | 17.78° C | 99% | 1008 hPa | 0 mm | - | 0 W/m² | - |
| 1777528073 | 17.78° C | 98% | 1008 hPa | 0 mm | - | 0 W/m² | - |
| 1777527773 | 17.78° C | 98% | 1007.9 hPa | 0 mm | - | 0 W/m² | - |
| 1777527473 | 17.78° C | 98% | 1007.9 hPa | 0 mm | - | 0 W/m² | - |
| 1777527173 | 17.78° C | 98% | 1007.7 hPa | 0 mm | - | 0 W/m² | - |
| 1777526873 | 17.78° C | 98% | 1007.8 hPa | 0 mm | - | 0 W/m² | - |
| 1777526573 | 17.78° C | 98% | 1007.9 hPa | 0.25 mm | - | 0 W/m² | - |
| 1777526333 | 17.78° C | 97% | 1007.7 hPa | 0.51 mm | - | 0 W/m² | - |
| 1777525973 | 18.33° C | 97% | 1007.9 hPa | 1.02 mm | - | 0 W/m² | - |
| 1777525673 | 18.33° C | 97% | 1007.8 hPa | 1.02 mm | - | 0 W/m² | - |
| 1777525372 | 18.33° C | 97% | 1007.8 hPa | 1.27 mm | - | 0 W/m² | - |
| 1777525146 | 18.33° C | 97% | 1007.8 hPa | 1.27 mm | - | 0 W/m² | - |
| 1777524828 | 18.33° C | 97% | 1008.1 hPa | 1.27 mm | - | 0 W/m² | - |
| 1777524469 | 18.33° C | 96% | 1008.1 hPa | 1.27 mm | - | 0 W/m² | - |
| 1777524168 | 18.89° C | 96% | 1008 hPa | 1.27 mm | - | 0 W/m² | - |
| 1777523870 | 18.89° C | 96% | 1008.1 hPa | 1.27 mm | - | 0 W/m² | - |
| 1777523568 | 18.89° C | 95% | 1007.9 hPa | 1.27 mm | - | 0 W/m² | - |
| 1777523329 | 19.44° C | 95% | 1008 hPa | 1.02 mm | - | 0 W/m² | - |
| 1777522968 | 19.44° C | 94% | 1008 hPa | 1.02 mm | - | 0 W/m² | - |
| 1777522668 | 19.44° C | 93% | 1008 hPa | 0.76 mm | - | 0 W/m² | - |
| 1777522427 | 20° C | 91% | 1008.2 hPa | 0.25 mm | - | 0 W/m² | - |
| 1777522067 | 20.56° C | 89% | 1007.2 hPa | 0 mm | - | 0 W/m² | - |
| 1777521768 | 20.56° C | 89% | 1006.7 hPa | 0 mm | - | 0 W/m² | - |
| 1777521466 | 20.56° C | 89% | 1006.8 hPa | 0 mm | - | 0 W/m² | - |
| 1777521166 | 20.56° C | 89% | 1006.7 hPa | 0 mm | - | 0 W/m² | - |
* Rain latest hour (hover to see other rain measurements)
** Current wind speed in m/s (hover to see current wind gust speed)